EZY37HW EGKK-LXGB

Flight info

Callsign EZY37HW
Flight time 2h 28m
Altitude 31000
Route IMVUR N63 SAM M195 MARUK N621 LELNA/N0450F370 DCT NOVAN DCT DELOG DCT CRISA N864 PIMOS
Aircraft A319/M-SDE3FGHIRWY/LB1

Departure

Time 2026-05-07 17:27
Airport London Gatwick Airport (EGKK)

Arrival

Time 2026-05-07 19:56
Airport Gibraltar Airport (LXGB)
Time Latitude Longitude Altitude Speed Heading
2026-05-07 16:36 51.15886 -0.17189 204 ft 0 kts 336°
2026-05-07 16:38 51.15877 -0.17248 204 ft 0 kts 347°
2026-05-07 17:09 51.15874 -0.17247 204 ft 3 kts 347°
2026-05-07 17:10 51.15848 -0.17238 213 ft 4 kts 347°
2026-05-07 17:10 51.15827 -0.17230 210 ft 4 kts 341°
2026-05-07 17:10 51.15807 -0.17210 216 ft 4 kts 288°
2026-05-07 17:10 51.15807 -0.17173 215 ft 4 kts 258°
2026-05-07 17:11 51.15809 -0.17156 213 ft 0 kts 258°
2026-05-07 17:15 51.15807 -0.17172 215 ft 4 kts 257°
2026-05-07 17:15 51.15796 -0.17254 206 ft 11 kts 257°
2026-05-07 17:15 51.15774 -0.17416 210 ft 16 kts 258°
2026-05-07 17:15 51.15749 -0.17595 207 ft 17 kts 258°
2026-05-07 17:16 51.15724 -0.17779 204 ft 17 kts 258°
2026-05-07 17:16 51.15699 -0.17964 207 ft 17 kts 258°
2026-05-07 17:16 51.15673 -0.18154 209 ft 18 kts 257°
2026-05-07 17:16 51.15645 -0.18348 209 ft 18 kts 257°
2026-05-07 17:17 51.15618 -0.18545 212 ft 18 kts 257°
2026-05-07 17:17 51.15590 -0.18745 215 ft 17 kts 257°
2026-05-07 17:17 51.15519 -0.18822 213 ft 15 kts 165°
2026-05-07 17:17 51.15418 -0.18782 204 ft 15 kts 168°
2026-05-07 17:18 51.15313 -0.18746 208 ft 16 kts 167°
2026-05-07 17:18 51.15204 -0.18706 207 ft 15 kts 167°
2026-05-07 17:18 51.15126 -0.18758 212 ft 14 kts 256°
2026-05-07 17:18 51.15105 -0.18911 205 ft 14 kts 257°
2026-05-07 17:19 51.15084 -0.19066 210 ft 15 kts 257°
2026-05-07 17:19 51.15052 -0.19287 209 ft 24 kts 258°
2026-05-07 17:19 51.15017 -0.19551 210 ft 25 kts 258°
2026-05-07 17:19 51.14980 -0.19818 208 ft 25 kts 258°
2026-05-07 17:20 51.14943 -0.20090 203 ft 25 kts 258°
2026-05-07 17:20 51.14905 -0.20366 203 ft 26 kts 257°
2026-05-07 17:20 51.14869 -0.20626 207 ft 24 kts 257°
2026-05-07 17:20 51.14833 -0.20883 204 ft 24 kts 257°
2026-05-07 17:21 51.14799 -0.21120 204 ft 21 kts 256°
2026-05-07 17:21 51.14762 -0.21328 204 ft 18 kts 256°
2026-05-07 17:21 51.14692 -0.21393 207 ft 13 kts 156°
2026-05-07 17:21 51.14625 -0.21330 204 ft 6 kts 169°
2026-05-07 17:22 51.14623 -0.21329 204 ft 0 kts 169°
2026-05-07 17:22 51.14621 -0.21328 204 ft 1 kts 169°
2026-05-07 17:23 51.14580 -0.21313 209 ft 11 kts 161°
2026-05-07 17:23 51.14520 -0.21214 208 ft 14 kts 108°
2026-05-07 17:23 51.14525 -0.21128 214 ft 0 kts 77°
2026-05-07 17:24 51.14532 -0.21080 207 ft 16 kts 77°
2026-05-07 17:24 51.14575 -0.20910 208 ft 15 kts 20°
2026-05-07 17:24 51.14657 -0.20969 203 ft 11 kts 348°
2026-05-07 17:24 51.14719 -0.21005 212 ft 9 kts 301°
2026-05-07 17:25 51.14712 -0.21112 213 ft 11 kts 254°
2026-05-07 17:25 51.14689 -0.21255 207 ft 16 kts 256°
2026-05-07 17:25 51.14598 -0.21320 204 ft 17 kts 167°
2026-05-07 17:25 51.14519 -0.21194 206 ft 15 kts 95°
2026-05-07 17:26 51.14524 -0.21142 203 ft 0 kts 77°
2026-05-07 17:26 51.14524 -0.21140 203 ft 1 kts 77°
2026-05-07 17:26 51.14569 -0.20818 214 ft 69 kts 77°
2026-05-07 17:26 51.14718 -0.19694 209 ft 136 kts 77°
2026-05-07 17:27 51.14956 -0.17982 424 ft 166 kts 79°
2026-05-07 17:27 51.15207 -0.16180 1114 ft 169 kts 79°
2026-05-07 17:27 51.15473 -0.14326 1816 ft 174 kts 80°
2026-05-07 17:27 51.15747 -0.12350 2265 ft 193 kts 80°
2026-05-07 17:28 51.16046 -0.10130 2627 ft 218 kts 79°
2026-05-07 17:28 51.16377 -0.07695 3070 ft 230 kts 77°
2026-05-07 17:28 51.17120 -0.05492 3021 ft 229 kts 40°
2026-05-07 17:28 51.18597 -0.04701 3647 ft 233 kts
2026-05-07 17:29 51.20224 -0.05005 4698 ft 234 kts 349°
2026-05-07 17:29 51.21741 -0.05930 5609 ft 239 kts 322°
2026-05-07 17:29 51.22674 -0.08110 6448 ft 248 kts 288°
2026-05-07 17:29 51.22742 -0.10927 6922 ft 269 kts 261°
2026-05-07 17:30 51.22422 -0.13910 7786 ft 275 kts 258°
2026-05-07 17:30 51.22047 -0.16910 8794 ft 277 kts 257°
2026-05-07 17:30 51.21662 -0.19928 9798 ft 279 kts 257°
2026-05-07 17:30 51.21281 -0.22975 10682 ft 281 kts 257°
2026-05-07 17:31 51.20904 -0.26057 11529 ft 285 kts 258°
2026-05-07 17:31 51.20531 -0.29178 12355 ft 289 kts 258°
2026-05-07 17:31 51.20155 -0.32357 13190 ft 293 kts 258°
2026-05-07 17:31 51.19777 -0.35565 13982 ft 297 kts 257°
2026-05-07 17:32 51.19372 -0.38814 14708 ft 300 kts 257°
2026-05-07 17:32 51.18945 -0.42087 15456 ft 303 kts 256°
2026-05-07 17:32 51.18507 -0.45386 16202 ft 306 kts 257°
2026-05-07 17:32 51.18207 -0.47633 16704 ft 307 kts 257°
2026-05-07 17:33 51.17616 -0.52069 17690 ft 311 kts 256°
2026-05-07 17:33 51.16922 -0.55374 18155 ft 323 kts 247°
2026-05-07 17:33 51.16028 -0.58785 18300 ft 344 kts 246°
2026-05-07 17:33 51.15067 -0.62377 18555 ft 358 kts 246°
2026-05-07 17:34 51.14075 -0.66056 19079 ft 364 kts 246°
2026-05-07 17:34 51.13072 -0.69775 19697 ft 367 kts 246°
2026-05-07 17:34 51.12063 -0.73527 20318 ft 370 kts 246°
2026-05-07 17:34 51.11000 -0.77274 20918 ft 373 kts 240°
2026-05-07 17:35 51.09393 -0.80531 21512 ft 377 kts 223°
2026-05-07 17:35 51.07330 -0.83130 22124 ft 380 kts 218°
2026-05-07 17:35 51.05217 -0.85682 22715 ft 383 kts 218°
2026-05-07 17:35 51.03082 -0.88242 23292 ft 386 kts 218°
2026-05-07 17:36 51.00928 -0.90816 23810 ft 389 kts 218°
2026-05-07 17:36 50.99491 -0.92533 24123 ft 391 kts 218°
2026-05-07 17:36 50.97311 -0.95135 24604 ft 393 kts 218°
2026-05-07 17:36 50.95118 -0.97752 25079 ft 395 kts 218°
2026-05-07 17:37 50.92917 -1.00383 25535 ft 398 kts 218°
2026-05-07 17:37 50.90700 -1.03031 25982 ft 400 kts 218°
2026-05-07 17:37 50.88471 -1.05695 26431 ft 403 kts 218°
2026-05-07 17:37 50.85490 -1.09247 27002 ft 406 kts 218°
2026-05-07 17:38 50.83965 -1.11060 27304 ft 407 kts 218°
2026-05-07 17:38 50.81687 -1.13768 27741 ft 410 kts 218°
2026-05-07 17:38 50.79400 -1.16484 28167 ft 412 kts 218°
2026-05-07 17:38 50.77097 -1.19211 28587 ft 415 kts 217°
2026-05-07 17:39 50.74779 -1.21950 28995 ft 417 kts 218°
2026-05-07 17:39 50.72447 -1.24707 29392 ft 420 kts 218°
2026-05-07 17:39 50.70108 -1.27472 29775 ft 422 kts 218°
2026-05-07 17:39 50.67748 -1.30255 30150 ft 425 kts 218°
2026-05-07 17:40 50.65376 -1.33052 30460 ft 427 kts 218°
2026-05-07 17:40 50.62991 -1.35858 30772 ft 429 kts 217°
2026-05-07 17:40 50.60593 -1.38673 30991 ft 431 kts 217°
2026-05-07 17:40 50.58222 -1.41456 31035 ft 419 kts 217°
2026-05-07 17:41 50.53607 -1.46855 31035 ft 411 kts 217°
2026-05-07 17:41 50.49059 -1.52166 31035 ft 410 kts 217°
2026-05-07 17:42 50.44483 -1.57497 31035 ft 409 kts 217°
2026-05-07 17:42 50.39904 -1.62815 31025 ft 409 kts 217°
2026-05-07 17:43 50.35321 -1.68131 31029 ft 409 kts 217°
2026-05-07 17:43 50.30742 -1.73428 31027 ft 409 kts 217°
2026-05-07 17:44 50.26162 -1.78711 31023 ft 409 kts 217°
2026-05-07 17:44 50.21580 -1.83984 31026 ft 409 kts 217°
2026-05-07 17:45 50.16997 -1.89247 31017 ft 409 kts 216°
2026-05-07 17:45 50.12415 -1.94499 31017 ft 409 kts 216°
2026-05-07 17:46 50.07837 -1.99744 31016 ft 409 kts 216°
2026-05-07 17:46 50.03240 -2.04977 31011 ft 409 kts 216°
2026-05-07 17:47 49.98545 -2.09960 31014 ft 409 kts 208°
2026-05-07 17:47 49.93200 -2.13010 31001 ft 410 kts 198°
2026-05-07 17:48 49.87774 -2.15546 31013 ft 410 kts 198°
2026-05-07 17:48 49.82310 -2.18099 31016 ft 410 kts 198°
2026-05-07 17:49 49.76845 -2.20634 31016 ft 410 kts 197°
2026-05-07 17:49 49.71379 -2.23163 31012 ft 410 kts 198°
2026-05-07 17:50 49.65913 -2.25695 31028 ft 410 kts 198°
2026-05-07 17:50 49.60454 -2.28230 31033 ft 409 kts 198°
2026-05-07 17:51 49.55002 -2.30744 31030 ft 409 kts 198°
2026-05-07 17:51 49.49554 -2.33246 30991 ft 408 kts 198°
2026-05-07 17:52 49.44107 -2.35742 30992 ft 408 kts 198°
2026-05-07 17:52 49.38652 -2.38243 30993 ft 409 kts 198°
2026-05-07 17:53 49.33206 -2.40733 30994 ft 409 kts 198°
2026-05-07 17:53 49.27752 -2.43217 30991 ft 409 kts 198°
2026-05-07 17:54 49.22300 -2.45691 30991 ft 408 kts 198°
2026-05-07 17:54 49.16850 -2.48159 30990 ft 408 kts 198°
2026-05-07 17:55 49.11439 -2.50613 30990 ft 408 kts 198°
2026-05-07 17:55 49.05996 -2.53072 30988 ft 408 kts 198°
2026-05-07 17:56 49.00555 -2.55521 30981 ft 407 kts 198°
2026-05-07 17:56 48.95124 -2.57972 30983 ft 407 kts 198°
2026-05-07 17:57 48.90611 -2.59996 30984 ft 406 kts 198°
2026-05-07 17:57 48.84267 -2.62824 30989 ft 406 kts 198°
2026-05-07 17:58 48.78854 -2.65234 30987 ft 405 kts 198°
2026-05-07 17:58 48.73449 -2.67646 30983 ft 405 kts 198°
2026-05-07 17:59 48.68052 -2.70047 30979 ft 405 kts 198°
2026-05-07 17:59 48.62646 -2.72451 30977 ft 404 kts 198°
2026-05-07 18:00 48.57247 -2.74842 30968 ft 404 kts 197°
2026-05-07 18:00 48.51847 -2.77217 30967 ft 404 kts 197°
2026-05-07 18:01 48.46448 -2.79584 30966 ft 404 kts 197°
2026-05-07 18:01 48.41084 -2.81940 30965 ft 404 kts 197°
2026-05-07 18:02 48.32980 -2.85496 30956 ft 405 kts 197°
2026-05-07 18:03 48.27568 -2.87866 30957 ft 405 kts 197°
2026-05-07 18:03 48.22152 -2.90227 30960 ft 405 kts 197°
2026-05-07 18:04 48.16732 -2.92589 30956 ft 406 kts 197°
2026-05-07 18:04 48.11310 -2.94952 30958 ft 406 kts 197°
2026-05-07 18:05 48.05889 -2.97295 30962 ft 406 kts 197°
2026-05-07 18:05 48.00454 -2.99633 30972 ft 406 kts 197°
2026-05-07 18:06 47.95035 -3.01977 30960 ft 406 kts 197°
2026-05-07 18:06 47.89596 -3.04313 30959 ft 406 kts 197°
2026-05-07 18:07 47.84159 -3.06646 30961 ft 407 kts 197°
2026-05-07 18:07 47.78715 -3.08980 30972 ft 407 kts 197°
2026-05-07 18:08 47.73300 -3.11296 30970 ft 408 kts 197°
2026-05-07 18:08 47.67840 -3.13629 30974 ft 408 kts 197°
2026-05-07 18:09 47.62375 -3.15961 30977 ft 409 kts 197°
2026-05-07 18:09 47.56908 -3.18275 30977 ft 408 kts 197°
2026-05-07 18:10 47.51444 -3.20589 30975 ft 408 kts 197°
2026-05-07 18:10 47.45977 -3.22909 30973 ft 409 kts 197°
2026-05-07 18:11 47.40507 -3.25217 30973 ft 409 kts 197°
2026-05-07 18:11 47.35034 -3.27517 30974 ft 409 kts 197°
2026-05-07 18:12 47.29560 -3.29817 30972 ft 409 kts 197°
2026-05-07 18:12 47.24085 -3.32117 30973 ft 409 kts 197°
2026-05-07 18:13 47.18601 -3.34408 30966 ft 410 kts 197°
2026-05-07 18:13 47.13110 -3.36693 30967 ft 410 kts 197°
2026-05-07 18:14 47.07615 -3.38979 30962 ft 411 kts 197°
2026-05-07 18:14 47.02122 -3.41269 30964 ft 411 kts 197°
2026-05-07 18:15 46.96613 -3.43563 30967 ft 411 kts 197°
2026-05-07 18:15 46.91113 -3.45841 30957 ft 411 kts 197°
2026-05-07 18:16 46.85635 -3.48101 30962 ft 411 kts 197°
2026-05-07 18:16 46.80124 -3.50378 30963 ft 412 kts 197°
2026-05-07 18:17 46.74613 -3.52635 30963 ft 412 kts 197°
2026-05-07 18:17 46.69097 -3.54897 30963 ft 412 kts 197°
2026-05-07 18:18 46.63582 -3.57165 30964 ft 412 kts 197°
2026-05-07 18:18 46.58060 -3.59429 30959 ft 412 kts 197°
2026-05-07 18:19 46.52539 -3.61677 30955 ft 412 kts 197°
2026-05-07 18:19 46.47009 -3.63923 30953 ft 413 kts 197°
2026-05-07 18:20 46.41470 -3.66173 30951 ft 414 kts 198°
2026-05-07 18:20 46.35917 -3.68424 30952 ft 415 kts 198°
2026-05-07 18:21 46.30295 -3.70218 30944 ft 418 kts 188°
2026-05-07 18:21 46.24502 -3.71077 30946 ft 418 kts 188°
2026-05-07 18:22 46.19680 -3.71809 30946 ft 419 kts 188°
2026-05-07 18:22 46.13876 -3.72682 30948 ft 419 kts 188°
2026-05-07 18:23 46.07128 -3.73677 30949 ft 420 kts 188°
2026-05-07 18:23 46.02256 -3.74397 30949 ft 420 kts 188°
2026-05-07 18:24 45.96438 -3.75254 30951 ft 420 kts 188°
2026-05-07 18:24 45.90657 -3.76113 30943 ft 421 kts 188°
2026-05-07 18:25 45.84832 -3.76976 30940 ft 421 kts 188°
2026-05-07 18:25 45.78998 -3.77825 30944 ft 421 kts 188°
2026-05-07 18:26 45.73164 -3.78680 30947 ft 421 kts 188°
2026-05-07 18:26 45.67333 -3.79538 30937 ft 421 kts 188°
2026-05-07 18:27 45.61504 -3.80391 30938 ft 421 kts 188°
2026-05-07 18:27 45.55672 -3.81235 30943 ft 421 kts 188°
2026-05-07 18:28 45.49845 -3.82083 30927 ft 421 kts 188°
2026-05-07 18:28 45.44017 -3.82939 30924 ft 421 kts 188°
2026-05-07 18:29 45.38182 -3.83792 30928 ft 422 kts 188°
2026-05-07 18:29 45.32339 -3.84630 30931 ft 422 kts 188°
2026-05-07 18:30 45.26495 -3.85469 30921 ft 422 kts 188°
2026-05-07 18:30 45.20645 -3.86309 30910 ft 422 kts 188°
2026-05-07 18:31 45.14780 -3.87161 30904 ft 425 kts 189°
2026-05-07 18:31 45.08881 -3.88011 30906 ft 427 kts 189°
2026-05-07 18:32 45.02993 -3.88857 30912 ft 428 kts 189°
2026-05-07 18:32 44.97064 -3.89695 30915 ft 429 kts 189°
2026-05-07 18:33 44.91119 -3.90539 30903 ft 430 kts 189°
2026-05-07 18:33 44.85167 -3.91391 30908 ft 430 kts 189°
2026-05-07 18:34 44.79212 -3.92237 30912 ft 430 kts 189°
2026-05-07 18:34 44.73254 -3.93073 30912 ft 430 kts 189°
2026-05-07 18:35 44.67292 -3.93903 30908 ft 430 kts 189°
2026-05-07 18:35 44.61339 -3.94742 30905 ft 430 kts 189°
2026-05-07 18:36 44.55386 -3.95594 30901 ft 430 kts 189°
2026-05-07 18:36 44.49430 -3.96431 30894 ft 430 kts 189°
2026-05-07 18:37 44.43470 -3.97263 30896 ft 430 kts 189°
2026-05-07 18:37 44.37506 -3.98102 30893 ft 431 kts 189°
2026-05-07 18:38 44.31539 -3.98932 30893 ft 431 kts 189°
2026-05-07 18:38 44.25597 -3.99639 30893 ft 432 kts 188°
2026-05-07 18:39 44.19605 -4.00287 30893 ft 432 kts 188°
2026-05-07 18:39 44.13610 -4.00953 30873 ft 432 kts 188°
2026-05-07 18:40 44.07625 -4.01632 30879 ft 431 kts 188°
2026-05-07 18:40 44.01640 -4.02317 30887 ft 432 kts 188°
2026-05-07 18:41 43.95654 -4.03001 30868 ft 432 kts 188°
2026-05-07 18:41 43.89660 -4.03677 30868 ft 432 kts 189°
2026-05-07 18:42 43.83656 -4.04353 30865 ft 433 kts 189°
2026-05-07 18:42 43.77645 -4.05033 30868 ft 434 kts 189°
2026-05-07 18:43 43.71630 -4.05717 30862 ft 434 kts 189°
2026-05-07 18:43 43.65612 -4.06399 30865 ft 434 kts 189°
2026-05-07 18:44 43.59590 -4.07073 30868 ft 434 kts 189°
2026-05-07 18:44 43.53561 -4.07742 30855 ft 435 kts 189°
2026-05-07 18:45 43.47527 -4.08418 30866 ft 435 kts 189°
2026-05-07 18:45 43.41485 -4.09094 30869 ft 436 kts 189°
2026-05-07 18:46 43.35433 -4.09767 30864 ft 436 kts 189°
2026-05-07 18:46 43.29383 -4.10441 30869 ft 437 kts 189°
2026-05-07 18:47 43.23321 -4.11109 30879 ft 437 kts 189°
2026-05-07 18:47 43.17257 -4.11781 30883 ft 437 kts 189°
2026-05-07 18:48 43.11234 -4.12448 30881 ft 437 kts 189°
2026-05-07 18:48 43.05180 -4.13117 30889 ft 437 kts 189°
2026-05-07 18:49 42.99122 -4.13783 30903 ft 437 kts 189°
2026-05-07 18:49 42.93060 -4.14445 30894 ft 437 kts 189°
2026-05-07 18:50 42.86997 -4.15110 30904 ft 437 kts 189°
2026-05-07 18:50 42.80943 -4.15780 30904 ft 437 kts 189°
2026-05-07 18:51 42.74875 -4.16441 30904 ft 437 kts 189°
2026-05-07 18:51 42.68805 -4.17097 30908 ft 437 kts 189°
2026-05-07 18:52 42.62745 -4.17753 30909 ft 437 kts 189°
2026-05-07 18:52 42.56678 -4.18410 30912 ft 437 kts 189°
2026-05-07 18:53 42.50611 -4.19070 30892 ft 438 kts 190°
2026-05-07 18:53 42.44536 -4.19740 30901 ft 438 kts 190°
2026-05-07 18:54 42.38447 -4.20391 30903 ft 439 kts 189°
2026-05-07 18:54 42.32347 -4.21037 30895 ft 439 kts 190°
2026-05-07 18:55 42.26249 -4.21693 30900 ft 440 kts 190°
2026-05-07 18:55 42.20143 -4.22350 30903 ft 441 kts 190°
2026-05-07 18:56 42.14029 -4.23011 30906 ft 441 kts 190°
2026-05-07 18:56 42.07910 -4.23667 30890 ft 441 kts 191°
2026-05-07 18:57 42.01817 -4.24319 30890 ft 442 kts 191°
2026-05-07 18:57 41.95674 -4.24978 30895 ft 443 kts 191°
2026-05-07 18:58 41.89521 -4.25628 30883 ft 444 kts 191°
2026-05-07 18:58 41.83356 -4.26269 30891 ft 445 kts 191°
2026-05-07 18:59 41.77180 -4.26921 30897 ft 445 kts 191°
2026-05-07 18:59 41.70999 -4.27579 30902 ft 446 kts 191°
2026-05-07 19:00 41.64812 -4.28234 30883 ft 446 kts 192°
2026-05-07 19:00 41.58617 -4.28890 30892 ft 447 kts 192°
2026-05-07 19:01 41.52412 -4.29538 30898 ft 447 kts 192°
2026-05-07 19:01 41.46205 -4.30186 30880 ft 447 kts 192°
2026-05-07 19:02 41.40002 -4.30831 30888 ft 447 kts 192°
2026-05-07 19:02 41.33811 -4.31480 30894 ft 447 kts 192°
2026-05-07 19:03 41.27617 -4.32124 30902 ft 446 kts 192°
2026-05-07 19:03 41.21434 -4.32766 30901 ft 445 kts 193°
2026-05-07 19:04 41.15268 -4.33411 30918 ft 444 kts 193°
2026-05-07 19:04 41.09115 -4.34052 30918 ft 443 kts 193°
2026-05-07 19:05 41.02961 -4.34684 30893 ft 442 kts 193°
2026-05-07 19:05 40.96839 -4.35315 30920 ft 441 kts 193°
2026-05-07 19:06 40.91758 -4.35848 30929 ft 440 kts 193°
2026-05-07 19:06 40.82605 -4.36789 30922 ft 439 kts 193°
2026-05-07 19:07 40.76514 -4.37409 30921 ft 439 kts 193°
2026-05-07 19:07 40.70425 -4.38032 30922 ft 438 kts 193°
2026-05-07 19:08 40.64354 -4.38655 30927 ft 438 kts 193°
2026-05-07 19:08 40.58283 -4.39270 30925 ft 437 kts 193°
2026-05-07 19:09 40.52257 -4.39883 30921 ft 437 kts 193°
2026-05-07 19:09 40.46185 -4.40505 30922 ft 437 kts 193°
2026-05-07 19:10 40.40121 -4.41119 30919 ft 437 kts 193°
2026-05-07 19:10 40.34061 -4.41727 30901 ft 436 kts 193°
2026-05-07 19:11 40.28015 -4.42338 30893 ft 435 kts 193°
2026-05-07 19:11 40.21978 -4.42947 30899 ft 435 kts 193°
2026-05-07 19:12 40.15950 -4.43546 30892 ft 434 kts 193°
2026-05-07 19:12 40.09929 -4.44156 30900 ft 434 kts 193°
2026-05-07 19:13 40.03917 -4.44770 30899 ft 433 kts 193°
2026-05-07 19:13 39.97907 -4.45369 30902 ft 433 kts 192°
2026-05-07 19:14 39.91902 -4.45967 30876 ft 432 kts 192°
2026-05-07 19:14 39.85909 -4.46570 30890 ft 432 kts 192°
2026-05-07 19:15 39.79921 -4.47170 30895 ft 431 kts 192°
2026-05-07 19:15 39.73936 -4.47758 30900 ft 431 kts 192°
2026-05-07 19:16 39.67954 -4.48355 30886 ft 431 kts 192°
2026-05-07 19:16 39.61985 -4.48950 30894 ft 430 kts 192°
2026-05-07 19:17 39.56018 -4.49545 30894 ft 429 kts 192°
2026-05-07 19:17 39.50070 -4.50136 30896 ft 429 kts 192°
2026-05-07 19:18 39.44116 -4.50723 30880 ft 428 kts 192°
2026-05-07 19:18 39.38211 -4.51306 30890 ft 428 kts 192°
2026-05-07 19:19 39.32287 -4.51893 30888 ft 427 kts 192°
2026-05-07 19:19 39.26355 -4.52476 30870 ft 427 kts 192°
2026-05-07 19:20 39.20431 -4.53052 30876 ft 427 kts 192°
2026-05-07 19:20 39.14510 -4.53617 30888 ft 426 kts 192°
2026-05-07 19:21 39.08596 -4.54196 30882 ft 426 kts 192°
2026-05-07 19:21 39.02682 -4.54773 30845 ft 426 kts 192°
2026-05-07 19:22 38.96776 -4.55346 30869 ft 425 kts 192°
2026-05-07 19:22 38.90903 -4.56067 30884 ft 421 kts 195°
2026-05-07 19:23 38.85146 -4.57277 30889 ft 418 kts 198°
2026-05-07 19:23 38.79416 -4.58617 30859 ft 418 kts 197°
2026-05-07 19:24 38.73721 -4.59860 30869 ft 418 kts 196°
2026-05-07 19:24 38.67979 -4.61037 30875 ft 418 kts 196°
2026-05-07 19:25 38.62244 -4.62212 30882 ft 417 kts 196°
2026-05-07 19:25 38.56520 -4.63394 30870 ft 417 kts 196°
2026-05-07 19:26 38.50801 -4.64569 30864 ft 416 kts 196°
2026-05-07 19:26 38.45090 -4.65744 30868 ft 415 kts 196°
2026-05-07 19:27 38.39395 -4.66920 30876 ft 414 kts 196°
2026-05-07 19:27 38.33706 -4.68095 30880 ft 414 kts 196°
2026-05-07 19:28 38.28021 -4.69270 30880 ft 414 kts 196°
2026-05-07 19:28 38.22327 -4.70433 30879 ft 414 kts 196°
2026-05-07 19:29 38.16651 -4.71592 30876 ft 413 kts 196°
2026-05-07 19:29 38.10966 -4.72751 30870 ft 413 kts 196°
2026-05-07 19:30 38.05299 -4.73908 30858 ft 412 kts 196°
2026-05-07 19:30 37.99642 -4.75068 30866 ft 412 kts 196°
2026-05-07 19:31 37.94018 -4.76216 30874 ft 412 kts 196°
2026-05-07 19:31 37.88328 -4.77370 30876 ft 412 kts 196°
2026-05-07 19:32 37.82700 -4.78503 30852 ft 411 kts 195°
2026-05-07 19:32 37.77051 -4.79648 30876 ft 411 kts 196°
2026-05-07 19:33 37.71410 -4.80793 30886 ft 410 kts 195°
2026-05-07 19:33 37.65771 -4.81930 30892 ft 410 kts 195°
2026-05-07 19:34 37.60134 -4.83062 30883 ft 410 kts 195°
2026-05-07 19:34 37.54504 -4.84193 30895 ft 409 kts 195°
2026-05-07 19:35 37.48880 -4.85327 30905 ft 409 kts 195°
2026-05-07 19:35 37.43262 -4.86458 30908 ft 409 kts 195°
2026-05-07 19:36 37.37646 -4.87581 30910 ft 408 kts 195°
2026-05-07 19:36 37.31983 -4.88710 30152 ft 421 kts 195°
2026-05-07 19:37 37.29093 -4.89291 29443 ft 419 kts 195°
2026-05-07 19:37 37.26236 -4.89859 28873 ft 413 kts 195°
2026-05-07 19:37 37.23417 -4.90418 28302 ft 408 kts 195°
2026-05-07 19:37 37.20627 -4.90971 27736 ft 403 kts 194°
2026-05-07 19:38 37.17911 -4.91509 27186 ft 398 kts 194°
2026-05-07 19:38 37.15189 -4.92049 26641 ft 394 kts 194°
2026-05-07 19:38 37.12494 -4.92586 26092 ft 390 kts 194°
2026-05-07 19:38 37.09790 -4.93127 25571 ft 387 kts 194°
2026-05-07 19:39 37.07146 -4.93652 25040 ft 385 kts 194°
2026-05-07 19:39 37.04505 -4.93926 24509 ft 389 kts 185°
2026-05-07 19:39 37.01794 -4.93809 23984 ft 388 kts 183°
2026-05-07 19:39 36.99097 -4.93669 23460 ft 388 kts 182°
2026-05-07 19:40 36.96407 -4.93521 22907 ft 385 kts 182°
2026-05-07 19:40 36.93741 -4.93373 22419 ft 382 kts 182°
2026-05-07 19:40 36.91098 -4.93230 21930 ft 378 kts 182°
2026-05-07 19:40 36.88477 -4.93094 21424 ft 375 kts 183°
2026-05-07 19:41 36.85880 -4.92962 20946 ft 372 kts 183°
2026-05-07 19:41 36.83302 -4.92832 20450 ft 369 kts 183°
2026-05-07 19:41 36.80744 -4.92705 19943 ft 367 kts 183°
2026-05-07 19:41 36.78199 -4.92575 19438 ft 365 kts 182°
2026-05-07 19:42 36.75669 -4.92443 18920 ft 364 kts 182°
2026-05-07 19:42 36.73139 -4.92311 18403 ft 363 kts 182°
2026-05-07 19:42 36.70615 -4.92180 17840 ft 363 kts 182°
2026-05-07 19:42 36.68101 -4.92051 17308 ft 360 kts 182°
2026-05-07 19:43 36.65604 -4.91925 16796 ft 357 kts 181°
2026-05-07 19:43 36.63132 -4.91798 16291 ft 354 kts 181°
2026-05-07 19:43 36.60672 -4.91674 15791 ft 352 kts 181°
2026-05-07 19:43 36.58232 -4.91551 15292 ft 350 kts 181°
2026-05-07 19:44 36.55808 -4.91426 14798 ft 348 kts 180°
2026-05-07 19:44 36.53401 -4.91303 14306 ft 345 kts 180°
2026-05-07 19:44 36.51011 -4.91183 13802 ft 344 kts 180°
2026-05-07 19:44 36.48630 -4.91065 13278 ft 341 kts 180°
2026-05-07 19:45 36.46271 -4.90949 12778 ft 337 kts 179°
2026-05-07 19:45 36.43965 -4.90829 12297 ft 333 kts 179°
2026-05-07 19:45 36.41659 -4.90706 11802 ft 330 kts 179°
2026-05-07 19:45 36.39374 -4.90585 11306 ft 327 kts 179°
2026-05-07 19:46 36.37113 -4.90466 10832 ft 324 kts 180°
2026-05-07 19:46 36.34871 -4.90353 10356 ft 321 kts 180°
2026-05-07 19:46 36.32686 -4.90240 10200 ft 306 kts 180°
2026-05-07 19:46 36.30613 -4.90131 10084 ft 291 kts 179°
2026-05-07 19:47 36.28627 -4.90027 9817 ft 282 kts 180°
2026-05-07 19:47 36.26682 -4.89930 9593 ft 278 kts 180°
2026-05-07 19:47 36.24749 -4.89834 9400 ft 279 kts 179°
2026-05-07 19:47 36.22816 -4.89735 9030 ft 277 kts 180°
2026-05-07 19:48 36.20897 -4.89634 8637 ft 275 kts 180°
2026-05-07 19:48 36.18994 -4.89535 8249 ft 273 kts 179°
2026-05-07 19:48 36.17109 -4.89438 7866 ft 270 kts 180°
2026-05-07 19:48 36.15241 -4.89348 7486 ft 267 kts 181°
2026-05-07 19:49 36.13482 -4.89853 7130 ft 259 kts 213°
2026-05-07 19:49 36.12339 -4.91486 6793 ft 253 kts 249°
2026-05-07 19:49 36.12192 -4.93615 6460 ft 250 kts 276°
2026-05-07 19:49 36.12427 -4.95735 6121 ft 248 kts 277°
2026-05-07 19:50 36.12667 -4.97818 5844 ft 241 kts 277°
2026-05-07 19:50 36.12902 -4.99853 5531 ft 236 kts 276°
2026-05-07 19:50 36.13131 -5.01851 5225 ft 233 kts 276°
2026-05-07 19:50 36.13350 -5.03807 4914 ft 231 kts 276°
2026-05-07 19:51 36.13568 -5.05764 4606 ft 228 kts 276°
2026-05-07 19:51 36.13782 -5.07700 4306 ft 226 kts 276°
2026-05-07 19:51 36.13993 -5.09618 3999 ft 224 kts 276°
2026-05-07 19:51 36.14200 -5.11513 3711 ft 222 kts 276°
2026-05-07 19:52 36.14407 -5.13401 3405 ft 221 kts 276°
2026-05-07 19:52 36.14545 -5.14667 3208 ft 219 kts 276°
2026-05-07 19:52 36.14748 -5.16521 2917 ft 216 kts 276°
2026-05-07 19:52 36.14948 -5.18351 2633 ft 213 kts 277°
2026-05-07 19:53 36.15146 -5.20161 2350 ft 211 kts 277°
2026-05-07 19:53 36.15339 -5.21943 2066 ft 207 kts 277°
2026-05-07 19:53 36.15504 -5.23698 1792 ft 203 kts 272°
2026-05-07 19:53 36.15496 -5.25379 1650 ft 185 kts 269°
2026-05-07 19:54 36.15440 -5.26878 1544 ft 165 kts 268°
2026-05-07 19:54 36.15383 -5.28204 1447 ft 141 kts 268°
2026-05-07 19:54 36.15331 -5.29348 1212 ft 130 kts 268°
2026-05-07 19:54 36.15281 -5.30448 888 ft 125 kts 267°
2026-05-07 19:55 36.15246 -5.31511 586 ft 122 kts 267°
2026-05-07 19:55 36.15200 -5.32550 388 ft 121 kts 266°
2026-05-07 19:55 36.15166 -5.33572 188 ft 121 kts 268°
2026-05-07 19:55 36.15133 -5.34613 19 ft 113 kts 268°
2026-05-07 19:56 36.15109 -5.35268 20 ft 34 kts 267°
2026-05-07 19:56 36.15100 -5.35509 18 ft 27 kts 267°
2026-05-07 19:56 36.15092 -5.35717 17 ft 19 kts 268°
2026-05-07 19:56 36.15086 -5.35858 17 ft 16 kts 266°
2026-05-07 19:57 36.15083 -5.35948 18 ft 8 kts 218°
2026-05-07 19:57 36.15051 -5.35911 17 ft 7 kts 89°
2026-05-07 19:57 36.15077 -5.35838 21 ft 11 kts 66°
2026-05-07 19:57 36.15091 -5.35720 17 ft 18 kts 87°
2026-05-07 19:58 36.15097 -5.35566 18 ft 18 kts 87°
2026-05-07 19:58 36.15103 -5.35414 19 ft 18 kts 87°
2026-05-07 19:58 36.15109 -5.35260 20 ft 18 kts 87°
2026-05-07 19:58 36.15115 -5.35099 20 ft 19 kts 87°
2026-05-07 19:59 36.15121 -5.34938 19 ft 18 kts 87°
2026-05-07 19:59 36.15126 -5.34792 19 ft 17 kts 87°
2026-05-07 19:59 36.15158 -5.34683 18 ft 8 kts 17°
2026-05-07 19:59 36.15216 -5.34677 18 ft 9 kts
2026-05-07 20:00 36.15267 -5.34673 18 ft 6 kts 358°
2026-05-07 20:00 36.15294 -5.34674 18 ft 2 kts 357°
2026-05-07 20:00 36.15304 -5.34675 18 ft 0 kts 357°